This demonstration page uses our WeatherBlox Daily Observations layout. Learn more.

Left ArrowRight Arrow

36.19886, -115.1175

Hourly Observations for August 13, 2022

Temp ( °F °C ) Dew Point ( °F °C ) Humidity (%) Winds ( mph kmh ) Pressure ( in mb ) Visibility ( mi km ) Precip ( " mm )
12:53 am 00:53 Clear 82 27.8 66 18.9 58 58 E 5 7 29.97 1015 10 16 0.00 0.00
1:53 am 01:53 Clear 81 27.2 68 20 65 65 E 5 7 29.96 1015 10 16 0.00 0.00
2:53 am 02:53 Clear 80 26.7 69 20.6 69 69 E 5 7 29.97 1015 10 16 0.00 0.00
3:53 am 03:53 Clear 80 26.7 68 20 67 67 NE 5 7 29.98 1015 10 16 0.00 0.00
4:53 am 04:53 Clear 80 26.7 69 20.6 69 69 NNE 3 6 29.99 1016 10 16 0.00 0.00
5:53 am 05:53 Clear 80 26.7 68 20 67 67 ENE 5 7 30.00 1016 10 16 0.00 0.00
6:53 am 06:53 Mostly Sunny 80 26.7 68 20 67 67 E 3 6 30.01 1016 10 16 0.00 0.00
7:53 am 07:53 Sunny 81 27.2 67 19.4 62 62 E 3 6 30.03 1017 10 16 0.00 0.00
8:53 am 08:53 Sunny 81 27.2 65 18.3 58 58 E 5 7 30.04 1017 10 16 0.00 0.00
9:53 am 09:53 Sunny 82 27.8 66 18.9 58 58 ENE 5 7 30.06 1018 10 16 0.00 0.00
10:53 am 10:53 Partly Cloudy 83 28.3 66 18.9 57 57 Calm 30.06 1018 10 16 0.01 0.13
11:53 am 11:53 Mostly Cloudy 85 29.4 66 18.9 53 53 Calm 30.06 1018 10 16 0.01 0.13
12:53 pm 12:53 Sunny 85 29.4 65 18.3 51 51 VRB 3 6 30.04 1017 10 16 0.00 0.00
1:53 pm 13:53 Sunny 89 31.7 65 18.3 45 45 VRB 3 6 30.01 1016 10 16 0.00 0.00
2:53 pm 14:53 Sunny 90 32.2 64 17.8 42 42 Calm 29.98 1015 10 16 0.00 0.00
3:53 pm 15:53 Sunny 90 32.2 64 17.8 42 42 Calm 29.96 1015 10 16 0.00 0.00
4:53 pm 16:53 Sunny 90 32.2 65 18.3 44 44 ESE 5 7 29.93 1014 10 16 0.00 0.00
5:53 pm 17:53 Sunny 90 32.2 64 17.8 42 42 S 6 9 29.91 1013 10 16 0.00 0.00
6:53 pm 18:53 Sunny 89 31.7 66 18.9 47 47 S 6 9 29.91 1013 10 16 0.00 0.00
7:53 pm 19:53 Clear 88 31.1 65 18.3 47 47 S 3 6 29.93 1013 10 16 0.00 0.00
8:53 pm 20:53 Clear 88 31.1 65 18.3 47 47 Calm 29.95 1014 10 16 0.00 0.00
9:53 pm 21:53 Clear 88 31.1 64 17.8 45 45 Calm 29.96 1015 10 16 0.00 0.00
10:53 pm 22:53 Clear 87 30.6 65 18.3 48 48 Calm 29.96 1014 10 16 0.00 0.00
11:53 pm 23:53 Clear 87 30.6 66 18.9 50 50 Calm 29.95 1014 10 16 0.00 0.00

Powered by AerisWeather